Regional Weather Roundup
Issued by NWS

Home | Current Version | Previous Version | Text Only | Print | Product List | Glossary On
Versions: 1 2 3 4 5 6 7 8 9 10 11 12 13 14 15 16 17 18 19 20 21 22 23 24 25 26 27 28 29 30 31 32 33 34 35 36 37 38 39 40 41 42 43 44 45 46 47 48 49 50
000
ASUS44 KBMX 272010
RWRAL

ALABAMA REGIONAL WEATHER ROUNDUP
NATIONAL WEATHER SERVICE BIRMINGHAM AL
300 PM CDT FRI MAR 27 2015

NOTE: "FAIR" INDICATES FEW OR NO CLOUDS BELOW 12,000 FEET
WITH NO SIGNIFICANT WEATHER AND/OR OBSTRUCTIONS TO VISIBILITY.

THE REMARK "TC" DENOTES TEMPERATURE IN DEGREES CELSIUS.

ALZ001>011-014-016>018-020-272100-
NORTH ALABAMA

CITY           SKY/WX    TMP DP  RH WIND       PRES   REMARKS
MUSCLE SHOALS  PTSUNNY   50  33  52 NW13G22   30.02S
HUNTSVILLE     PTSUNNY   51  31  46 N14G22    29.97S
DECATUR        CLOUDY    50  30  46 N17       29.98F
HALEYVILLE     PTSUNNY   47  31  54 NW10      30.02S
GADSDEN        MOSUNNY  N/A N/A N/A NW18G29   29.90F
$$

ALZ012-013-022-023-030>036-040>044-272100-
WEST CENTRAL ALABAMA

CITY           SKY/WX    TMP DP  RH WIND       PRES   REMARKS
TUSCALOOSA     CLOUDY    57  29  34 NW18      29.99R
$$

ALZ015-024>027-033>036-040>044-272100-
CENTRAL ALABAMA

CITY           SKY/WX    TMP DP  RH WIND       PRES   REMARKS
BIRMINGHAM     PTSUNNY   55  28  35 NW12      29.96F
MONTGOMERY       N/A     63  26  24 NW14G24   29.92F
SHELBY CO ARPT MOSUNNY   59  31  34 W8G20     29.93F
MAXWELL AFB    SUNNY     62  31  31 NW13G21   29.91F
GREENVILLE     FAIR      62  30  29 VRB6G21   29.91F
$$

ALZ019-021-028-029-037-038-045>048-272100-
EAST CENTRAL ALABAMA

CITY           SKY/WX    TMP DP  RH WIND       PRES   REMARKS
ANNISTON       PTSUNNY   57  26  30 NW13G23   29.90S
ALEXANDER CITY SUNNY     61  20  20 NW14      29.89F
AUBURN         MOSUNNY   57  32  38 W13G21    29.89F
$$

ALZ051>064-272100-
SOUTHWEST ALABAMA

CITY           SKY/WX    TMP DP  RH WIND       PRES   REMARKS
MOBILE         MOSUNNY   66  31  27 W10G22    29.97F
BROOKLEY FIELD SUNNY     68  35  29 NW14G22   29.97F
EVERGREEN      SUNNY     64  34  32 NW10G18   29.93F
$$

ALZ049-050-065>069-272100-
SOUTHEAST ALABAMA

CITY           SKY/WX    TMP DP  RH WIND       PRES   REMARKS
DOTHAN         MOSUNNY   63  38  39 NW14G21   29.90F
OZARK          MOSUNNY   64  32  29 W13G23    29.87F
TROY           SUNNY     63  35  35 NW13G24   29.90F
EUFAULA        FAIR      64  34  32 NW10G23   29.86F
$$



USA.gov is the U.S. government's official web portal to all federal, state and local government web resources and services.